Year,Month,Day,Hour,Minute,Value (Times are PST for temperature in C)
2014,06,11,00,00,12.30
2014,06,11,00,01,12.30
2014,06,11,00,02,12.30
2014,06,11,00,03,12.20
2014,06,11,00,04,12.20
2014,06,11,00,05,12.20
2014,06,11,00,06,12.20
2014,06,11,00,07,12.20
2014,06,11,00,08,12.20
2014,06,11,00,09,12.20
2014,06,11,00,10,12.20
2014,06,11,00,11,12.10
2014,06,11,00,12,12.10
2014,06,11,00,13,12.10
2014,06,11,00,14,12.10
2014,06,11,00,15,12.10
2014,06,11,00,16,12.00
2014,06,11,00,17,12.00
2014,06,11,00,18,11.90
2014,06,11,00,19,11.90
2014,06,11,00,20,11.80
2014,06,11,00,21,11.80
2014,06,11,00,22,11.70
2014,06,11,00,23,11.70
2014,06,11,00,24,11.70
2014,06,11,00,25,11.70
2014,06,11,00,26,11.70
2014,06,11,00,27,11.70
2014,06,11,00,28,11.70
2014,06,11,00,29,11.70
2014,06,11,00,30,11.70
2014,06,11,00,31,11.70
2014,06,11,00,32,11.70
2014,06,11,00,33,11.80
2014,06,11,00,34,11.80
2014,06,11,00,35,11.80
2014,06,11,00,36,11.80
2014,06,11,00,37,11.80
2014,06,11,00,38,11.70
2014,06,11,00,39,11.70
2014,06,11,00,40,11.70
2014,06,11,00,41,11.70
2014,06,11,00,42,11.70
2014,06,11,00,43,11.70
2014,06,11,00,44,11.70
2014,06,11,00,45,11.70
2014,06,11,00,46,11.70
2014,06,11,00,47,11.70
2014,06,11,00,48,11.70
2014,06,11,00,49,11.70
2014,06,11,00,50,11.70
2014,06,11,00,51,11.70
2014,06,11,00,52,11.70
2014,06,11,00,53,11.70
2014,06,11,00,54,11.70
2014,06,11,00,55,11.70
2014,06,11,00,56,11.70
2014,06,11,00,57,11.70
2014,06,11,00,58,11.70
2014,06,11,00,59,11.70
2014,06,11,01,00,11.70
2014,06,11,01,01,11.70
2014,06,11,01,02,11.70
2014,06,11,01,03,11.60
2014,06,11,01,04,11.60
2014,06,11,01,05,11.60
2014,06,11,01,06,11.60
2014,06,11,01,07,11.60
2014,06,11,01,08,11.60
2014,06,11,01,09,11.50
2014,06,11,01,10,11.50
2014,06,11,01,11,11.50
2014,06,11,01,12,11.50
2014,06,11,01,13,11.50
2014,06,11,01,14,11.40
2014,06,11,01,15,11.40
2014,06,11,01,16,11.40
2014,06,11,01,17,11.40
2014,06,11,01,18,11.40
2014,06,11,01,19,11.40
2014,06,11,01,20,11.40
2014,06,11,01,21,11.40
2014,06,11,01,22,11.40
2014,06,11,01,23,11.40
2014,06,11,01,24,11.40
2014,06,11,01,25,11.50
2014,06,11,01,26,11.50
2014,06,11,01,27,11.50
2014,06,11,01,28,11.50
2014,06,11,01,29,11.60
2014,06,11,01,30,11.60
2014,06,11,01,31,11.60
2014,06,11,01,32,11.60
2014,06,11,01,33,11.60
2014,06,11,01,34,11.60
2014,06,11,01,35,11.60
2014,06,11,01,36,11.60
2014,06,11,01,37,11.60
2014,06,11,01,38,11.60
2014,06,11,01,39,11.60
2014,06,11,01,40,11.60
2014,06,11,01,41,11.60
2014,06,11,01,42,11.60
2014,06,11,01,43,11.50
2014,06,11,01,44,11.50
2014,06,11,01,45,11.50
2014,06,11,01,46,11.50
2014,06,11,01,47,11.40
2014,06,11,01,48,11.40
2014,06,11,01,49,11.40
2014,06,11,01,50,11.40
2014,06,11,01,51,11.40
2014,06,11,01,52,11.30
2014,06,11,01,53,11.30
2014,06,11,01,54,11.30
2014,06,11,01,55,11.30
2014,06,11,01,56,11.30
2014,06,11,01,57,11.30
2014,06,11,01,58,11.20
2014,06,11,01,59,11.20
2014,06,11,02,00,11.20
2014,06,11,02,01,11.20
2014,06,11,02,02,11.20
2014,06,11,02,03,11.20
2014,06,11,02,04,11.20
2014,06,11,02,05,11.20
2014,06,11,02,06,11.20
2014,06,11,02,07,11.20
2014,06,11,02,08,11.20
2014,06,11,02,09,11.20
2014,06,11,02,10,11.20
2014,06,11,02,11,11.20
2014,06,11,02,12,11.20
2014,06,11,02,13,11.20
2014,06,11,02,14,11.20
2014,06,11,02,15,11.20
2014,06,11,02,16,11.20
2014,06,11,02,17,11.20
2014,06,11,02,18,11.20
2014,06,11,02,19,11.20
2014,06,11,02,20,11.20
2014,06,11,02,21,11.20
2014,06,11,02,22,11.20
2014,06,11,02,23,11.20
2014,06,11,02,24,11.20
2014,06,11,02,25,11.20
2014,06,11,02,26,11.20
2014,06,11,02,27,11.20
2014,06,11,02,28,11.20
2014,06,11,02,29,11.20
2014,06,11,02,30,11.30
2014,06,11,02,31,11.30
2014,06,11,02,32,11.30
2014,06,11,02,33,11.30
2014,06,11,02,34,11.30
2014,06,11,02,35,11.30
2014,06,11,02,36,11.30
2014,06,11,02,37,11.30
2014,06,11,02,38,11.30
2014,06,11,02,39,11.30
2014,06,11,02,40,11.30
2014,06,11,02,41,11.30
2014,06,11,02,42,11.30
2014,06,11,02,43,11.30
2014,06,11,02,44,11.30
2014,06,11,02,45,11.30
2014,06,11,02,46,11.30
2014,06,11,02,47,11.30
2014,06,11,02,48,11.30
2014,06,11,02,49,11.30
2014,06,11,02,50,11.30
2014,06,11,02,51,11.30
2014,06,11,02,52,11.30
2014,06,11,02,53,11.30
2014,06,11,02,54,11.30
2014,06,11,02,55,11.30
2014,06,11,02,56,11.30
2014,06,11,02,57,11.30
2014,06,11,02,58,11.30
2014,06,11,02,59,11.30
2014,06,11,03,00,11.30
2014,06,11,03,01,11.30
2014,06,11,03,02,11.30
2014,06,11,03,03,11.30
2014,06,11,03,04,11.30
2014,06,11,03,05,11.30
2014,06,11,03,06,11.30
2014,06,11,03,07,11.30
2014,06,11,03,08,11.30
2014,06,11,03,09,11.30
2014,06,11,03,10,11.30
2014,06,11,03,11,11.30
2014,06,11,03,12,11.30
2014,06,11,03,13,11.30
2014,06,11,03,14,11.30
2014,06,11,03,15,11.30
2014,06,11,03,16,11.30
2014,06,11,03,17,11.30
2014,06,11,03,18,11.30
2014,06,11,03,19,11.30
2014,06,11,03,20,11.30
2014,06,11,03,21,11.30
2014,06,11,03,22,11.30
2014,06,11,03,23,11.30
2014,06,11,03,24,11.30
2014,06,11,03,25,11.30
2014,06,11,03,26,11.30
2014,06,11,03,27,11.30
2014,06,11,03,28,11.30
2014,06,11,03,29,11.30
2014,06,11,03,30,11.30
2014,06,11,03,31,11.30
2014,06,11,03,32,11.30
2014,06,11,03,33,11.30
2014,06,11,03,34,11.30
2014,06,11,03,35,11.30
2014,06,11,03,36,11.30
2014,06,11,03,37,11.30
2014,06,11,03,38,11.30
2014,06,11,03,39,11.30
2014,06,11,03,40,11.30
2014,06,11,03,41,11.30
2014,06,11,03,42,11.30
2014,06,11,03,43,11.30
2014,06,11,03,44,11.30
2014,06,11,03,45,11.30
2014,06,11,03,46,11.30
2014,06,11,03,47,11.30
2014,06,11,03,48,11.30
2014,06,11,03,49,11.30
2014,06,11,03,50,11.30
2014,06,11,03,51,11.30
2014,06,11,03,52,11.30
2014,06,11,03,53,11.30
2014,06,11,03,54,11.30
2014,06,11,03,55,11.30
2014,06,11,03,56,11.20
2014,06,11,03,57,11.20
2014,06,11,03,58,11.20
2014,06,11,03,59,11.20
2014,06,11,04,00,11.20
2014,06,11,04,01,11.20
2014,06,11,04,02,11.20
2014,06,11,04,03,11.20
2014,06,11,04,04,11.10
2014,06,11,04,05,11.10
2014,06,11,04,06,11.10
2014,06,11,04,07,11.10
2014,06,11,04,08,11.10
2014,06,11,04,09,11.10
2014,06,11,04,10,11.10
2014,06,11,04,11,11.10
2014,06,11,04,12,11.00
2014,06,11,04,13,11.00
2014,06,11,04,14,11.00
2014,06,11,04,15,11.00
2014,06,11,04,16,11.00
2014,06,11,04,17,11.00
2014,06,11,04,18,11.00
2014,06,11,04,19,11.00
2014,06,11,04,20,11.00
2014,06,11,04,21,11.00
2014,06,11,04,22,10.90
2014,06,11,04,23,10.90
2014,06,11,04,24,10.90
2014,06,11,04,25,10.90
2014,06,11,04,26,10.90
2014,06,11,04,27,10.90
2014,06,11,04,28,10.90
2014,06,11,04,29,10.90
2014,06,11,04,30,10.90
2014,06,11,04,31,10.90
2014,06,11,04,32,10.90
2014,06,11,04,33,10.90
2014,06,11,04,34,10.90
2014,06,11,04,35,10.90
2014,06,11,04,36,10.90
2014,06,11,04,37,10.90
2014,06,11,04,38,10.90
2014,06,11,04,39,10.90
2014,06,11,04,40,10.90
2014,06,11,04,41,10.80
2014,06,11,04,42,10.90
2014,06,11,04,43,10.80
2014,06,11,04,44,10.80
2014,06,11,04,45,10.80
2014,06,11,04,46,10.80
2014,06,11,04,47,10.80
2014,06,11,04,48,10.80
2014,06,11,04,49,10.80
2014,06,11,04,50,10.80
2014,06,11,04,51,10.80
2014,06,11,04,52,10.80
2014,06,11,04,53,10.80
2014,06,11,04,54,10.80
2014,06,11,04,55,10.70
2014,06,11,04,56,10.70
2014,06,11,04,57,10.80
2014,06,11,04,58,10.80
2014,06,11,04,59,10.80
2014,06,11,05,00,10.80
2014,06,11,05,01,10.80
2014,06,11,05,02,10.80
2014,06,11,05,03,10.80
2014,06,11,05,04,10.80
2014,06,11,05,05,10.80
2014,06,11,05,06,10.80
2014,06,11,05,07,10.80
2014,06,11,05,08,10.80
2014,06,11,05,09,10.70
2014,06,11,05,10,10.70
2014,06,11,05,11,10.70
2014,06,11,05,12,10.70
2014,06,11,05,13,10.70
2014,06,11,05,14,10.70
2014,06,11,05,15,10.70
2014,06,11,05,16,10.70
2014,06,11,05,17,10.70
2014,06,11,05,18,10.70
2014,06,11,05,19,10.70
2014,06,11,05,20,10.70
2014,06,11,05,21,10.70
2014,06,11,05,22,10.70
2014,06,11,05,23,10.70
2014,06,11,05,24,10.70
2014,06,11,05,25,10.70
2014,06,11,05,26,10.70
2014,06,11,05,27,10.70
2014,06,11,05,28,10.60
2014,06,11,05,29,10.60
2014,06,11,05,30,10.60
2014,06,11,05,31,10.60
2014,06,11,05,32,10.60
2014,06,11,05,33,10.60
2014,06,11,05,34,10.60
2014,06,11,05,35,10.60
2014,06,11,05,36,10.60
2014,06,11,05,37,10.60
2014,06,11,05,38,10.50
2014,06,11,05,39,10.50
2014,06,11,05,40,10.50
2014,06,11,05,41,10.50
2014,06,11,05,42,10.50
2014,06,11,05,43,10.50
2014,06,11,05,44,10.50
2014,06,11,05,45,10.50
2014,06,11,05,46,10.50
2014,06,11,05,47,10.50
2014,06,11,05,48,10.50
2014,06,11,05,49,10.60
2014,06,11,05,50,10.60
2014,06,11,05,51,10.60
2014,06,11,05,52,10.60
2014,06,11,05,53,10.60
2014,06,11,05,54,10.60
2014,06,11,05,55,10.60
2014,06,11,05,56,10.60
2014,06,11,05,57,10.60
2014,06,11,05,58,10.60
2014,06,11,05,59,10.60
2014,06,11,06,00,10.60
2014,06,11,06,01,10.60
2014,06,11,06,02,10.60
2014,06,11,06,03,10.70
2014,06,11,06,04,10.70
2014,06,11,06,05,10.70
2014,06,11,06,06,10.70
2014,06,11,06,07,10.70
2014,06,11,06,08,10.70
2014,06,11,06,09,10.80
2014,06,11,06,10,10.80
2014,06,11,06,11,10.80
2014,06,11,06,12,10.80
2014,06,11,06,13,10.80
2014,06,11,06,14,10.90
2014,06,11,06,15,10.90
2014,06,11,06,16,10.90
2014,06,11,06,17,10.90
2014,06,11,06,18,11.00
2014,06,11,06,19,11.00
2014,06,11,06,20,11.00
2014,06,11,06,21,11.10
2014,06,11,06,22,11.10
2014,06,11,06,23,11.10
2014,06,11,06,24,11.10
2014,06,11,06,25,11.10
2014,06,11,06,26,11.10
2014,06,11,06,27,11.20
2014,06,11,06,28,11.20
2014,06,11,06,29,11.20
2014,06,11,06,30,11.20
2014,06,11,06,31,11.20
2014,06,11,06,32,11.20
2014,06,11,06,33,11.20
2014,06,11,06,34,11.20
2014,06,11,06,35,11.20
2014,06,11,06,36,11.20
2014,06,11,06,37,11.30
2014,06,11,06,38,11.30
2014,06,11,06,39,11.30
2014,06,11,06,40,11.30
2014,06,11,06,41,11.30
2014,06,11,06,42,11.30
2014,06,11,06,43,11.30
2014,06,11,06,44,11.30
2014,06,11,06,45,11.30
2014,06,11,06,46,11.30
2014,06,11,06,47,11.30
2014,06,11,06,48,11.30
2014,06,11,06,49,11.30
2014,06,11,06,50,11.30
2014,06,11,06,51,11.30
2014,06,11,06,52,11.30
2014,06,11,06,53,11.30
2014,06,11,06,54,11.30
2014,06,11,06,55,11.30
2014,06,11,06,56,11.30
2014,06,11,06,57,11.30
2014,06,11,06,58,11.30
2014,06,11,06,59,11.30
2014,06,11,07,00,11.30
2014,06,11,07,01,11.30
2014,06,11,07,02,11.30
2014,06,11,07,03,11.30
2014,06,11,07,04,11.30
2014,06,11,07,05,11.30
2014,06,11,07,06,11.30
2014,06,11,07,07,11.30
2014,06,11,07,08,11.30
2014,06,11,07,09,11.30
2014,06,11,07,10,11.30
2014,06,11,07,11,11.30
2014,06,11,07,12,11.30
2014,06,11,07,13,11.30
2014,06,11,07,14,11.30
2014,06,11,07,15,11.30
2014,06,11,07,16,11.30
2014,06,11,07,17,11.30
2014,06,11,07,18,11.30
2014,06,11,07,19,11.30
2014,06,11,07,20,11.30
2014,06,11,07,21,11.30
2014,06,11,07,22,11.30
2014,06,11,07,23,11.30
2014,06,11,07,24,11.30
2014,06,11,07,25,11.40
2014,06,11,07,26,11.40
2014,06,11,07,27,11.40
2014,06,11,07,28,11.40
2014,06,11,07,29,11.40
2014,06,11,07,30,11.40
2014,06,11,07,31,11.50
2014,06,11,07,32,11.50
2014,06,11,07,33,11.50
2014,06,11,07,34,11.50
2014,06,11,07,35,11.60
2014,06,11,07,36,11.60
2014,06,11,07,37,11.60
2014,06,11,07,38,11.60
2014,06,11,07,39,11.60
2014,06,11,07,40,11.70
2014,06,11,07,41,11.70
2014,06,11,07,42,11.70
2014,06,11,07,43,11.70
2014,06,11,07,44,11.80
2014,06,11,07,45,11.80
2014,06,11,07,46,11.80
2014,06,11,07,47,11.80
2014,06,11,07,48,11.80
2014,06,11,07,49,11.90
2014,06,11,07,50,11.90
2014,06,11,07,51,11.90
2014,06,11,07,52,11.90
2014,06,11,07,53,11.90
2014,06,11,07,54,11.80
2014,06,11,07,55,11.90
2014,06,11,07,56,11.90
2014,06,11,07,57,11.90
2014,06,11,07,58,11.90
2014,06,11,07,59,11.90
2014,06,11,08,00,11.90
2014,06,11,08,01,11.90
2014,06,11,08,02,12.00
2014,06,11,08,03,12.00
2014,06,11,08,04,12.00
2014,06,11,08,05,12.10
2014,06,11,08,06,12.10
2014,06,11,08,07,12.10
2014,06,11,08,08,12.10
2014,06,11,08,09,12.10
2014,06,11,08,10,12.10
2014,06,11,08,11,12.10
2014,06,11,08,12,12.10
2014,06,11,08,13,12.20
2014,06,11,08,14,12.20
2014,06,11,08,15,12.20
2014,06,11,08,16,12.20
2014,06,11,08,17,12.20
2014,06,11,08,18,12.30
2014,06,11,08,19,12.30
2014,06,11,08,20,12.30
2014,06,11,08,21,12.30
2014,06,11,08,22,12.40
2014,06,11,08,23,12.40
2014,06,11,08,24,12.40
2014,06,11,08,25,12.50
2014,06,11,08,26,12.50
2014,06,11,08,27,12.60
2014,06,11,08,28,12.60
2014,06,11,08,29,12.70
2014,06,11,08,30,12.70
2014,06,11,08,31,12.80
2014,06,11,08,32,12.80
2014,06,11,08,33,12.90
2014,06,11,08,34,13.00
2014,06,11,08,35,13.10
2014,06,11,08,36,13.10
2014,06,11,08,37,13.20
2014,06,11,08,38,13.30
2014,06,11,08,39,13.30
2014,06,11,08,40,13.40
2014,06,11,08,41,13.50
2014,06,11,08,42,13.50
2014,06,11,08,43,13.60
2014,06,11,08,44,13.70
2014,06,11,08,45,13.80
2014,06,11,08,46,13.80
2014,06,11,08,47,13.90
2014,06,11,08,48,14.00
2014,06,11,08,49,14.00
2014,06,11,08,50,14.10
2014,06,11,08,51,14.10
2014,06,11,08,52,14.10
2014,06,11,08,53,14.20
2014,06,11,08,54,14.20
2014,06,11,08,55,14.20
2014,06,11,08,56,14.20
2014,06,11,08,57,14.30
2014,06,11,08,58,14.30
2014,06,11,08,59,14.40
2014,06,11,09,00,14.40
2014,06,11,09,01,14.50
2014,06,11,09,02,14.50
2014,06,11,09,03,14.60
2014,06,11,09,04,14.60
2014,06,11,09,05,14.70
2014,06,11,09,06,14.70
2014,06,11,09,07,14.80
2014,06,11,09,08,14.80
2014,06,11,09,09,14.80
2014,06,11,09,10,14.80
2014,06,11,09,11,14.80
2014,06,11,09,12,14.80
2014,06,11,09,13,14.80
2014,06,11,09,14,14.80
2014,06,11,09,15,14.80
2014,06,11,09,16,14.80
2014,06,11,09,17,14.80
2014,06,11,09,18,14.80
2014,06,11,09,19,14.80
2014,06,11,09,20,14.70
2014,06,11,09,21,14.70
2014,06,11,09,22,14.70
2014,06,11,09,23,14.70
2014,06,11,09,24,14.80
2014,06,11,09,25,14.70
2014,06,11,09,26,14.70
2014,06,11,09,27,14.70
2014,06,11,09,28,14.70
2014,06,11,09,29,14.70
2014,06,11,09,30,14.80
2014,06,11,09,31,14.80
2014,06,11,09,32,14.80
2014,06,11,09,33,14.80
2014,06,11,09,34,14.80
2014,06,11,09,35,14.80
2014,06,11,09,36,14.90
2014,06,11,09,37,14.90
2014,06,11,09,38,14.90
2014,06,11,09,39,14.90
2014,06,11,09,40,14.90
2014,06,11,09,41,14.90
2014,06,11,09,42,14.90
2014,06,11,09,43,14.90
2014,06,11,09,44,14.90
2014,06,11,09,45,14.90
2014,06,11,09,46,14.90
2014,06,11,09,47,14.90
2014,06,11,09,48,14.90
2014,06,11,09,49,14.90
2014,06,11,09,50,14.90
2014,06,11,09,51,14.90
2014,06,11,09,52,14.80
2014,06,11,09,53,14.80
2014,06,11,09,54,14.80
2014,06,11,09,55,14.90
2014,06,11,09,56,14.90
2014,06,11,09,57,14.90
2014,06,11,09,58,14.90
2014,06,11,09,59,15.00
2014,06,11,10,00,15.00
2014,06,11,10,01,15.10
2014,06,11,10,02,15.10
2014,06,11,10,03,15.10
2014,06,11,10,04,15.20
2014,06,11,10,05,15.20
2014,06,11,10,06,15.20
2014,06,11,10,07,15.20
2014,06,11,10,08,15.20
2014,06,11,10,09,15.20
2014,06,11,10,10,15.20
2014,06,11,10,11,15.20
2014,06,11,10,12,15.20
2014,06,11,10,13,15.20
2014,06,11,10,14,15.30
2014,06,11,10,15,15.30
2014,06,11,10,16,15.40
2014,06,11,10,17,15.50
2014,06,11,10,18,15.50
2014,06,11,10,19,15.60
2014,06,11,10,20,15.60
2014,06,11,10,21,15.60
2014,06,11,10,22,15.70
2014,06,11,10,23,15.70
2014,06,11,10,24,15.70
2014,06,11,10,25,15.80
2014,06,11,10,26,15.80
2014,06,11,10,27,15.80
2014,06,11,10,28,15.90
2014,06,11,10,29,15.90
2014,06,11,10,30,16.00
2014,06,11,10,31,16.00
2014,06,11,10,32,16.10
2014,06,11,10,33,16.10
2014,06,11,10,34,16.10
2014,06,11,10,35,16.20
2014,06,11,10,36,16.20
2014,06,11,10,37,16.20
2014,06,11,10,38,16.30
2014,06,11,10,39,16.30
2014,06,11,10,40,16.40
2014,06,11,10,41,16.40
2014,06,11,10,42,16.50
2014,06,11,10,43,16.50
2014,06,11,10,44,16.60
2014,06,11,10,45,16.60
2014,06,11,10,46,16.60
2014,06,11,10,47,16.70
2014,06,11,10,48,16.70
2014,06,11,10,49,16.80
2014,06,11,10,50,16.80
2014,06,11,10,51,16.80
2014,06,11,10,52,16.90
2014,06,11,10,53,16.90
2014,06,11,10,54,17.00
2014,06,11,10,55,17.00
2014,06,11,10,56,17.10
2014,06,11,10,57,17.20
2014,06,11,10,58,17.20
2014,06,11,10,59,17.30
2014,06,11,11,00,17.30
2014,06,11,11,01,17.30
2014,06,11,11,02,17.30
2014,06,11,11,03,17.40
2014,06,11,11,04,17.40
2014,06,11,11,05,17.30
2014,06,11,11,06,17.30
2014,06,11,11,07,17.30
2014,06,11,11,08,17.30
2014,06,11,11,09,17.30
2014,06,11,11,10,17.30
2014,06,11,11,11,17.30
2014,06,11,11,12,17.30
2014,06,11,11,13,17.20
2014,06,11,11,14,17.20
2014,06,11,11,15,17.10
2014,06,11,11,16,17.10
2014,06,11,11,17,17.00
2014,06,11,11,18,17.00
2014,06,11,11,19,16.90
2014,06,11,11,20,16.90
2014,06,11,11,21,16.90
2014,06,11,11,22,16.90
2014,06,11,11,23,16.90
2014,06,11,11,24,16.80
2014,06,11,11,25,16.80
2014,06,11,11,26,16.80
2014,06,11,11,27,16.70
2014,06,11,11,28,16.70
2014,06,11,11,29,16.70
2014,06,11,11,30,16.70
2014,06,11,11,31,16.70
2014,06,11,11,32,16.70
2014,06,11,11,33,16.70
2014,06,11,11,34,16.70
2014,06,11,11,35,16.70
2014,06,11,11,36,16.70
2014,06,11,11,37,16.70
2014,06,11,11,38,16.70
2014,06,11,11,39,16.80
2014,06,11,11,40,16.80
2014,06,11,11,41,16.80
2014,06,11,11,42,16.90
2014,06,11,11,43,16.90
2014,06,11,11,44,16.90
2014,06,11,11,45,16.90
2014,06,11,11,46,16.90
2014,06,11,11,47,16.90
2014,06,11,11,48,16.90
2014,06,11,11,49,17.00
2014,06,11,11,50,17.00
2014,06,11,11,51,17.10
2014,06,11,11,52,17.20
2014,06,11,11,53,17.30
2014,06,11,11,54,17.40
2014,06,11,11,55,17.50
2014,06,11,11,56,17.60
2014,06,11,11,57,17.70
2014,06,11,11,58,17.70
2014,06,11,11,59,17.80
2014,06,11,12,00,17.80
2014,06,11,12,01,17.90
2014,06,11,12,02,17.90
2014,06,11,12,03,17.90
2014,06,11,12,04,17.80
2014,06,11,12,05,17.80
2014,06,11,12,06,17.80
2014,06,11,12,07,17.90
2014,06,11,12,08,17.90
2014,06,11,12,09,17.90
2014,06,11,12,10,18.00
2014,06,11,12,11,18.00
2014,06,11,12,12,18.00
2014,06,11,12,13,17.90
2014,06,11,12,14,17.90
2014,06,11,12,15,17.90
2014,06,11,12,16,17.90
2014,06,11,12,17,17.90
2014,06,11,12,18,17.90
2014,06,11,12,19,17.90
2014,06,11,12,20,17.90
2014,06,11,12,21,17.90
2014,06,11,12,22,18.00
2014,06,11,12,23,18.10
2014,06,11,12,24,18.10
2014,06,11,12,25,18.20
2014,06,11,12,26,18.30
2014,06,11,12,27,18.30
2014,06,11,12,28,18.30
2014,06,11,12,29,18.30
2014,06,11,12,30,18.30
2014,06,11,12,31,18.30
2014,06,11,12,32,18.30
2014,06,11,12,33,18.20
2014,06,11,12,34,18.20
2014,06,11,12,35,18.20
2014,06,11,12,36,18.20
2014,06,11,12,37,18.20
2014,06,11,12,38,18.30
2014,06,11,12,39,18.20
2014,06,11,12,40,18.20
2014,06,11,12,41,18.20
2014,06,11,12,42,18.20
2014,06,11,12,43,18.20
2014,06,11,12,44,18.20
2014,06,11,12,45,18.20
2014,06,11,12,46,18.20
2014,06,11,12,47,18.30
2014,06,11,12,48,18.30
2014,06,11,12,49,18.30
2014,06,11,12,50,18.30
2014,06,11,12,51,18.40
2014,06,11,12,52,18.40
2014,06,11,12,53,18.50
2014,06,11,12,54,18.50
2014,06,11,12,55,18.60
2014,06,11,12,56,18.70
2014,06,11,12,57,18.70
2014,06,11,12,58,18.70
2014,06,11,12,59,18.80
2014,06,11,13,00,18.80
2014,06,11,13,01,18.90
2014,06,11,13,02,19.00
2014,06,11,13,03,19.10
2014,06,11,13,04,19.20
2014,06,11,13,05,19.30
2014,06,11,13,06,19.30
2014,06,11,13,07,19.30
2014,06,11,13,08,19.30
2014,06,11,13,09,19.30
2014,06,11,13,10,19.30
2014,06,11,13,11,19.30
2014,06,11,13,12,19.30
2014,06,11,13,13,19.40
2014,06,11,13,14,19.40
2014,06,11,13,15,19.50
2014,06,11,13,16,19.60
2014,06,11,13,17,19.70
2014,06,11,13,18,19.70
2014,06,11,13,19,19.70
2014,06,11,13,20,19.70
2014,06,11,13,21,19.70
2014,06,11,13,22,19.60
2014,06,11,13,23,19.60
2014,06,11,13,24,19.60
2014,06,11,13,25,19.60
2014,06,11,13,26,19.60
2014,06,11,13,27,19.60
2014,06,11,13,28,19.50
2014,06,11,13,29,19.40
2014,06,11,13,30,19.30
2014,06,11,13,31,19.30
2014,06,11,13,32,19.20
2014,06,11,13,33,19.10
2014,06,11,13,34,19.10
2014,06,11,13,35,19.10
2014,06,11,13,36,19.00
2014,06,11,13,37,19.00
2014,06,11,13,38,19.00
2014,06,11,13,39,19.00
2014,06,11,13,40,19.10
2014,06,11,13,41,19.10
2014,06,11,13,42,19.10
2014,06,11,13,43,19.10
2014,06,11,13,44,19.10
2014,06,11,13,45,19.10
2014,06,11,13,46,19.10
2014,06,11,13,47,19.10
2014,06,11,13,48,19.10
2014,06,11,13,49,19.20
2014,06,11,13,50,19.20
2014,06,11,13,51,19.20
2014,06,11,13,52,19.20
2014,06,11,13,53,19.20
2014,06,11,13,54,19.30
2014,06,11,13,55,19.30
2014,06,11,13,56,19.30
2014,06,11,13,57,19.20
2014,06,11,13,58,19.20
2014,06,11,13,59,19.20
2014,06,11,14,00,19.10
2014,06,11,14,01,19.00
2014,06,11,14,02,18.90
2014,06,11,14,03,18.80
2014,06,11,14,04,18.70
2014,06,11,14,05,18.70
2014,06,11,14,06,18.60
2014,06,11,14,07,18.60
2014,06,11,14,08,18.60
2014,06,11,14,09,18.60
2014,06,11,14,10,18.70
2014,06,11,14,11,18.70
2014,06,11,14,12,18.80
2014,06,11,14,13,18.80
2014,06,11,14,14,18.90
2014,06,11,14,15,18.90
2014,06,11,14,16,18.90
2014,06,11,14,17,19.00
2014,06,11,14,18,19.00
2014,06,11,14,19,19.10
2014,06,11,14,20,19.10
2014,06,11,14,21,19.10
2014,06,11,14,22,19.20
2014,06,11,14,23,19.20
2014,06,11,14,24,19.20
2014,06,11,14,25,19.20
2014,06,11,14,26,19.30
2014,06,11,14,27,19.20
2014,06,11,14,28,19.20
2014,06,11,14,29,19.20
2014,06,11,14,30,19.20
2014,06,11,14,31,19.10
2014,06,11,14,32,19.20
2014,06,11,14,33,19.20
2014,06,11,14,34,19.20
2014,06,11,14,35,19.30
2014,06,11,14,36,19.30
2014,06,11,14,37,19.30
2014,06,11,14,38,19.40
2014,06,11,14,39,19.40
2014,06,11,14,40,19.40
2014,06,11,14,41,19.40
2014,06,11,14,42,19.50
2014,06,11,14,43,19.50
2014,06,11,14,44,19.50
2014,06,11,14,45,19.60
2014,06,11,14,46,19.60
2014,06,11,14,47,19.60
2014,06,11,14,48,19.60
2014,06,11,14,49,19.60
2014,06,11,14,50,19.70
2014,06,11,14,51,19.70
2014,06,11,14,52,19.70
2014,06,11,14,53,19.70
2014,06,11,14,54,19.70
2014,06,11,14,55,19.60
2014,06,11,14,56,19.60
2014,06,11,14,57,19.50
2014,06,11,14,58,19.50
2014,06,11,14,59,19.50
2014,06,11,15,00,19.50
2014,06,11,15,01,19.50
2014,06,11,15,02,19.60
2014,06,11,15,03,19.70
2014,06,11,15,04,19.80
2014,06,11,15,05,19.80
2014,06,11,15,06,19.90
2014,06,11,15,07,20.00
2014,06,11,15,08,20.10
2014,06,11,15,09,20.30
2014,06,11,15,10,20.30
2014,06,11,15,11,20.30
2014,06,11,15,12,20.30
2014,06,11,15,13,20.30
2014,06,11,15,14,20.30
2014,06,11,15,15,20.20
2014,06,11,15,16,20.20
2014,06,11,15,17,20.20
2014,06,11,15,18,20.20
2014,06,11,15,19,20.10
2014,06,11,15,20,20.10
2014,06,11,15,21,20.00
2014,06,11,15,22,20.00
2014,06,11,15,23,19.90
2014,06,11,15,24,19.90
2014,06,11,15,25,19.70
2014,06,11,15,26,19.60
2014,06,11,15,27,19.60
2014,06,11,15,28,19.50
2014,06,11,15,29,19.50
2014,06,11,15,30,19.60
2014,06,11,15,31,19.60
2014,06,11,15,32,19.60
2014,06,11,15,33,19.60
2014,06,11,15,34,19.70
2014,06,11,15,35,19.80
2014,06,11,15,36,19.80
2014,06,11,15,37,19.80
2014,06,11,15,38,19.80
2014,06,11,15,39,19.70
2014,06,11,15,40,19.70
2014,06,11,15,41,19.70
2014,06,11,15,42,19.70
2014,06,11,15,43,19.70
2014,06,11,15,44,19.70
2014,06,11,15,45,19.80
2014,06,11,15,46,19.80
2014,06,11,15,47,19.80
2014,06,11,15,48,19.80
2014,06,11,15,49,19.70
2014,06,11,15,50,19.70
2014,06,11,15,51,19.70
2014,06,11,15,52,19.70
2014,06,11,15,53,19.70
2014,06,11,15,54,19.70
2014,06,11,15,55,19.70
2014,06,11,15,56,19.70
2014,06,11,15,57,19.70
2014,06,11,15,58,19.70
2014,06,11,15,59,19.70
2014,06,11,16,00,19.70
2014,06,11,16,01,19.70
2014,06,11,16,02,19.70
2014,06,11,16,03,19.70
2014,06,11,16,04,19.80
2014,06,11,16,05,19.80
2014,06,11,16,06,19.90
2014,06,11,16,07,19.90
2014,06,11,16,08,20.00
2014,06,11,16,09,20.00
2014,06,11,16,10,20.10
2014,06,11,16,11,20.10
2014,06,11,16,12,20.10
2014,06,11,16,13,20.00
2014,06,11,16,14,20.00
2014,06,11,16,15,20.00
2014,06,11,16,16,20.10
2014,06,11,16,17,20.10
2014,06,11,16,18,20.10
2014,06,11,16,19,20.20
2014,06,11,16,20,20.20
2014,06,11,16,21,20.30
2014,06,11,16,22,20.30
2014,06,11,16,23,20.40
2014,06,11,16,24,20.40
2014,06,11,16,25,20.40
2014,06,11,16,26,20.40
2014,06,11,16,27,20.40
2014,06,11,16,28,20.40
2014,06,11,16,29,20.40
2014,06,11,16,30,20.30
2014,06,11,16,31,20.30
2014,06,11,16,32,20.30
2014,06,11,16,33,20.30
2014,06,11,16,34,20.30
2014,06,11,16,35,20.30
2014,06,11,16,36,20.30
2014,06,11,16,37,20.30
2014,06,11,16,38,20.30
2014,06,11,16,39,20.30
2014,06,11,16,40,20.30
2014,06,11,16,41,20.30
2014,06,11,16,42,20.30
2014,06,11,16,43,20.40
2014,06,11,16,44,20.40
2014,06,11,16,45,20.40
2014,06,11,16,46,20.50
2014,06,11,16,47,20.50
2014,06,11,16,48,20.50
2014,06,11,16,49,20.50
2014,06,11,16,50,20.60
2014,06,11,16,51,20.50
2014,06,11,16,52,20.50
2014,06,11,16,53,20.40
2014,06,11,16,54,20.30
2014,06,11,16,55,20.30
2014,06,11,16,56,20.20
2014,06,11,16,57,20.10
2014,06,11,16,58,20.10
2014,06,11,16,59,20.00
2014,06,11,17,00,20.00
2014,06,11,17,01,19.90
2014,06,11,17,02,19.90
2014,06,11,17,03,19.80
2014,06,11,17,04,19.80
2014,06,11,17,05,19.80
2014,06,11,17,06,19.80
2014,06,11,17,07,19.80
2014,06,11,17,08,19.80
2014,06,11,17,09,19.80
2014,06,11,17,10,19.70
2014,06,11,17,11,19.70
2014,06,11,17,12,19.70
2014,06,11,17,13,19.80
2014,06,11,17,14,19.80
2014,06,11,17,15,19.90
2014,06,11,17,16,19.90
2014,06,11,17,17,20.00
2014,06,11,17,18,20.10
2014,06,11,17,19,20.10